EW6434 Weather Reports


time (UTC)temp
F
wind
direction
speed
knots
gust
knots
rain 1hr
in
rain 24hr
in
rain mn
in
humidity
%
barometer
mb
20260904181530 66 56 0.9 4.3 0.00 0.00 0.00 54 1011.9
20260904180038 63 154 0.0 3.5 0.00 0.00 0.00 57 1012.4
20260904174527 62 85 0.0 2.6 0.00 0.00 0.00 59 1012.6
20260904173026 62 95 0.0 5.2 0.00 0.00 0.00 57 1012.6
20260904171525 64 84 0.9 7.0 0.00 0.00 0.00 52 1012.2
20260904170025 63 94 0.9 6.1 0.00 0.00 0.00 52 1012.3
20260904164523 64 44 1.7 7.0 0.00 0.00 0.00 52 1012.4
20260904163021 63 65 0.0 4.3 0.00 0.00 0.00 54 1012.4
20260904161517 62 108 0.0 3.5 0.00 0.00 0.00 57 1012.4
20260904160014 61 102 0.0 2.6 0.00 0.00 0.00 57 1012.6
20260904154512 60 146 0.9 3.5 0.00 0.00 0.00 56 1012.7
20260904153007 57 136 0.0 4.3 0.00 0.00 0.00 67 1012.6
20260904151502 54 153 0.0 0.9 0.00 0.00 0.00 80 1012.8
20260904150058 51 167 0.0 0.0 0.00 0.00 0.00 85 1012.9
20260904144555 49 167 0.0 0.0 0.00 0.00 0.00 86 1012.9
20260904143051 48 167 0.0 0.0 0.00 0.00 0.00 87 1012.9
20260904141555 48 162 0.0 0.0 0.00 0.00 0.00 88 1012.9
20260904140104 47 161 0.0 0.0 0.00 0.00 0.00 88 1012.9
20260904134609 47 139 0.0 0.0 0.00 0.00 0.00 89 1012.7
20260904133049 47 139 0.0 0.0 0.00 0.00 0.00 88 1012.5
20260904131544 47 139 0.0 0.0 0.00 0.00 0.00 88 1012.3
20260904130044 47 139 0.0 0.0 0.00 0.00 0.00 87 1012.1
20260904124543 47 139 0.0 0.0 0.00 0.00 0.00 87 1012.0
20260904123041 48 139 0.0 0.0 0.00 0.00 0.00 87 1011.9
20260904121549 48 139 0.0 0.0 0.00 0.00 0.00 86 1011.9
20260904120040 47 139 0.0 0.0 0.00 0.00 0.00 86 1011.7
20260904114542 47 139 0.0 0.0 0.00 0.01 0.00 86 1011.6
20260904113039 47 139 0.0 0.0 0.00 0.01 0.00 86 1011.6
20260904111541 47 139 0.0 0.0 0.00 0.01 0.00 86 1011.5
20260904110037 47 139 0.0 0.0 0.00 0.01 0.00 86 1011.6
20260904104536 46 139 0.0 0.0 0.00 0.01 0.00 86 1011.4
20260904103035 47 139 0.0 0.0 0.00 0.01 0.00 86 1011.2
20260904101535 46 139 0.0 0.0 0.00 0.01 0.00 86 1011.3
20260904100034 46 139 0.0 0.0 0.00 0.01 0.00 86 1011.3
20260904094548 46 139 0.0 0.0 0.00 0.01 0.00 86 1011.3
20260904093031 46 139 0.0 0.0 0.00 0.01 0.00 85 1011.4
20260904091530 46 139 0.0 0.0 0.00 0.01 0.00 84 1011.5
20260904090042 46 139 0.0 0.0 0.00 0.01 0.00 84 1011.6
20260904084528 47 139 0.0 0.0 0.00 0.01 0.00 84 1011.8
20260904083049 47 139 0.0 0.0 0.00 0.01 0.00 84 1011.8
20260904081531 47 139 0.0 0.0 0.00 0.01 0.00 83 1011.8
20260904080027 47 139 0.0 0.0 0.00 0.01 0.00 83 1012.0
20260904074522 47 139 0.0 0.0 0.00 0.01 0.00 83 1012.0
20260904073023 48 172 0.0 0.0 0.00 0.01 0.00 81 1011.9
20260904071519 48 172 0.0 0.0 0.00 0.01 0.00 81 1012.0
20260904070026 48 172 0.0 0.0 0.00 0.01 0.00 80 1012.0
20260904064518 48 172 0.0 0.0 0.00 0.01 0.00 81 1012.0
20260904063017 48 172 0.0 0.0 0.00 0.01 0.00 81 1012.0
20260904061522 48 172 0.0 0.0 0.00 0.01 0.00 81 1011.9
20260904060017 48 172 0.0 0.0 0.00 0.01 0.00 81 1011.9
20260904054513 47 172 0.0 0.0 0.00 0.01 0.01 81 1011.9
20260904053032 47 172 0.0 0.0 0.00 0.01 0.01 81 1011.9
20260904051522 47 172 0.0 0.0 0.00 0.01 0.01 81 1012.0
20260904050011 47 172 0.0 0.0 0.00 0.01 0.01 79 1012.0
20260904044511 48 172 0.0 0.0 0.00 0.01 0.01 78 1012.0
20260904043011 48 172 0.0 0.0 0.00 0.01 0.01 77 1012.0
20260904041510 49 172 0.0 0.0 0.00 0.01 0.01 76 1012.1
20260904040010 49 172 0.0 0.0 0.00 0.01 0.01 75 1012.0
20260904034510 50 172 0.0 0.0 0.00 0.01 0.01 73 1012.0
20260904033008 51 172 0.0 0.0 0.00 0.01 0.01 70 1012.0
20260904031508 52 172 0.0 0.0 0.00 0.01 0.01 69 1012.0
20260904030008 52 172 0.0 0.0 0.00 0.01 0.01 67 1011.9
20260904024508 53 172 0.0 0.0 0.00 0.01 0.01 64 1011.8
20260904023006 54 172 0.0 0.0 0.00 0.01 0.01 64 1011.6
20260904021506 55 172 0.0 0.0 0.00 0.01 0.01 62 1011.4
20260904020006 56 172 0.0 0.0 0.00 0.01 0.01 61 1011.1
20260904014506 57 98 0.0 0.0 0.00 0.01 0.01 58 1011.0
20260904013009 59 98 0.0 0.0 0.00 0.01 0.01 54 1011.0
20260904011505 61 97 0.0 0.0 0.00 0.01 0.01 50 1011.1
20260904010004 62 98 0.0 0.9 0.00 0.02 0.01 45 1011.0
20260904004503 63 265 0.0 0.0 0.00 0.02 0.01 44 1011.1
20260904003002 66 265 0.0 0.9 0.00 0.02 0.01 40 1011.0
20260904001501 68 260 0.0 0.9 0.00 0.02 0.01 40 1011.1
20260904000108 68 283 0.0 4.3 0.00 0.02 0.01 36 1011.4
20260903234559 69 228 0.9 2.6 0.00 0.11 0.01 34 1011.5
20260903233102 70 269 0.0 2.6 0.00 0.11 0.01 32 1011.5
20260903231558 70 281 0.0 3.5 0.00 0.11 0.01 31 1011.5
20260903230059 71 280 0.0 2.6 0.00 0.11 0.01 36 1011.6
20260903224556 70 255 0.0 2.6 0.00 0.11 0.01 33 1011.8
20260903223057 70 46 0.0 4.3 0.00 0.11 0.01 33 1012.2
20260903221553 70 266 0.0 3.5 0.00 0.11 0.01 34 1012.2
20260903220052 69 128 0.9 7.8 0.00 0.11 0.01 32 1012.5
20260903214605 70 79 0.0 5.2 0.00 0.15 0.01 32 1012.6
20260903213050 70 226 0.0 7.8 0.00 0.15 0.01 34 1012.7
20260903211550 71 291 0.9 2.6 0.00 0.15 0.01 33 1012.7
20260903210046 70 237 0.9 5.2 0.00 0.15 0.01 31 1013.1
20260903204543 70 148 0.0 5.2 0.00 0.15 0.01 35 1013.1
20260903203040 69 274 0.0 4.3 0.00 0.15 0.01 34 1013.4
20260903201544 68 72 0.0 6.1 0.00 0.15 0.01 34 1013.5
20260903200038 68 63 0.9 5.2 0.00 0.15 0.01 36 1013.7
20260903194537 69 121 0.0 5.2 0.00 0.15 0.01 38 1013.6
20260903193034 69 106 0.0 4.3 0.00 0.15 0.01 33 1013.7
20260903191534 67 200 0.0 8.7 0.00 0.15 0.01 37 1013.9
20260903190031 68 221 0.0 7.8 0.00 0.15 0.01 39 1013.9
20260903184529 68 72 1.7 4.3 0.00 0.15 0.01 34 1014.1
20260903183027 67 141 0.0 2.6 0.00 0.15 0.01 41 1014.2